Weather History for Pittsfield, MA

Change the Weather History Date:

Friday, December 13, 2013

  Actual Average Record
Temperature  
Mean Temperature 18 °F 28 °F  
Max Temperature 25 °F 35 °F 58 °F (1946)
Min Temperature 11 °F 21 °F -5 °F (1960)
Degree Days  
Heating Degree Days 47 37  
Month to date heating degree days 469 456  
Since 1 July heating degree days 2149 2107  
Cooling Degree Days 0 0  
Month to date cooling degree days 0 0  
Year to date cooling degree days 433 290  
Moisture  
Dew Point 10 °F    
Average Humidity 66    
Maximum Humidity 71    
Minimum Humidity 61    
Precipitation  
Precipitation T in 0.09 in 0.73 in (2007)
Month to date precipitation 0.44 1.32  
Year to date precipitation 37.25 43.70  
Sea Level Pressure  
Sea Level Pressure 30.06 in    
Wind  
Wind Speed 10 mph (West)    
Max Wind Speed 20 mph    
Max Gust Speed 25 mph    
Visibility 7 miles    
Events Snow    
T = Trace of Precipitation, MM = Missing Value Source: NWS Daily Summary

Daily Weather History Graph

Daily Weather History Graph

Search for Another Location

Airport:

Trip Planner

Search our weather history database for the weather conditions in past years. The results will help you decide how hot, cold, wet, or windy it might be!

Date:

Astronomy

Dec. 13, 2013 Rise Set
Actual Time 7:14 AM EST 4:20 PM EST
Civil Twilight 6:42 AM EST 4:52 PM EST
Nautical Twilight 6:06 AM EST 5:28 PM EST
Astronomical Twilight 5:32 AM EST 6:02 PM EST
Moon 2:04 PM EST (12/13) 3:31 AM EST (12/13)
Length of Visible Light 10h 10m
Length of Day
9h 06m
Waxing Gibbous, 88% of the Moon is Illuminated
Dec 13
Waxing Gibbous
Dec 17
Full
Dec 25
Last Quarter
Jan 1
New
Jan 7
First Quarter

Hourly Weather History & Observations

Time (EST) Temp. Windchill Dew Point Humidity Pressure Visibility Wind Dir Wind Speed Gust Speed Precip Events Conditions
12:54 AM 14.0 °F 3.9 °F 3.0 °F 62% 30.01 in 10.0 mi WSW 6.9 mph - N/A   Overcast
1:54 AM 14.0 °F 3.9 °F 3.0 °F 62% 30.01 in 10.0 mi SSW 6.9 mph - N/A   Overcast
2:54 AM 14.0 °F 3.9 °F 3.0 °F 62% 29.99 in 10.0 mi WSW 6.9 mph - N/A   Partly Cloudy
3:54 AM 14.0 °F 3.9 °F 3.9 °F 64% 29.98 in 10.0 mi SW 6.9 mph - N/A   Scattered Clouds
4:54 AM 15.1 °F 3.3 °F 5.0 °F 64% 29.98 in 10.0 mi WSW 9.2 mph - N/A   Overcast
5:54 AM 17.1 °F 5.0 °F 6.1 °F 62% 29.98 in 10.0 mi SW 10.4 mph - N/A   Overcast
6:54 AM 17.1 °F 5.0 °F 7.0 °F 65% 30.00 in 10.0 mi WSW 10.4 mph - N/A   Overcast
7:54 AM 18.0 °F 6.9 °F 7.0 °F 62% 30.01 in 10.0 mi SW 9.2 mph - N/A   Overcast
8:54 AM 19.9 °F 6.2 °F 9.0 °F 62% 30.02 in 10.0 mi WSW 15.0 mph - N/A   Overcast
9:54 AM 19.9 °F 6.2 °F 9.0 °F 62% 30.04 in 8.0 mi WSW 15.0 mph - N/A   Overcast
10:54 AM 21.0 °F 9.3 °F 10.0 °F 63% 30.04 in 10.0 mi WSW 11.5 mph 21.9 mph N/A   Overcast
11:37 AM 21.2 °F 7.8 °F 10.4 °F 63% 29.95 in 8.0 mi WSW 15.0 mph 21.9 mph N/A   Overcast
11:54 AM 21.0 °F 8.6 °F 10.9 °F 65% 30.02 in 3.0 mi WSW 12.7 mph - 0.00 in Snow Light Snow
12:01 PM 21.2 °F 7.3 °F 12.2 °F 68% 29.95 in 2.5 mi West 16.1 mph - 0.00 in Snow Light Snow
12:16 PM 21.2 °F 7.8 °F 14.0 °F 74% 29.96 in 1.0 mi WSW 15.0 mph - 0.00 in Snow Light Snow
12:49 PM 21.2 °F 9.5 °F 14.0 °F 74% 29.96 in 2.5 mi WSW 11.5 mph 19.6 mph 0.00 in Snow Light Snow
12:54 PM 21.9 °F 10.4 °F 14.0 °F 72% 30.04 in 3.0 mi West 11.5 mph - 0.00 in Snow Light Snow
1:08 PM 21.2 °F 10.1 °F 14.0 °F 74% 29.97 in 2.0 mi West 10.4 mph 20.7 mph 0.00 in Snow Light Snow
1:15 PM 21.2 °F 8.9 °F 14.0 °F 74% 29.96 in 1.2 mi WNW 12.7 mph - 0.00 in Snow Light Snow
1:29 PM 24.8 °F 15.3 °F 14.0 °F 64% 29.97 in 3.0 mi West 9.2 mph 20.7 mph 0.00 in Snow Light Snow
1:54 PM 24.1 °F 15.2 °F 15.1 °F 69% 30.05 in 9.0 mi NW 8.1 mph - 0.00 in   Overcast
2:10 PM 24.8 °F 13.4 °F 14.0 °F 64% 29.98 in 10.0 mi West 12.7 mph - N/A   Overcast
2:22 PM 23.0 °F 11.7 °F 15.8 °F 74% 29.99 in 2.5 mi WNW 11.5 mph 20.7 mph 0.00 in Snow Light Snow
2:30 PM 23.0 °F 11.1 °F 15.8 °F 74% 30.00 in 0.8 mi NW 12.7 mph 19.6 mph 0.00 in Snow Light Snow
2:37 PM 21.2 °F 9.5 °F 17.6 °F 86% 30.01 in 0.2 mi NNW 11.5 mph 19.6 mph 0.00 in Snow Heavy Snow
2:49 PM 21.2 °F 8.3 °F 15.8 °F 80% 30.01 in 0.2 mi WNW 13.8 mph 20.7 mph 0.00 in Snow Heavy Snow
2:54 PM 21.0 °F 9.9 °F 16.0 °F 81% 30.09 in 0.8 mi West 10.4 mph 20.7 mph 0.00 in Snow Light Snow
2:59 PM 21.2 °F 9.5 °F 15.8 °F 80% 30.02 in 2.0 mi West 11.5 mph - 0.00 in Snow Light Snow
3:07 PM 21.2 °F 8.3 °F 15.8 °F 80% 30.03 in 6.0 mi West 13.8 mph - 0.00 in   Haze
3:17 PM 21.2 °F 7.8 °F 15.8 °F 80% 30.04 in 10.0 mi WNW 15.0 mph - 0.00 in   Overcast
3:54 PM 21.0 °F 8.6 °F 12.9 °F 71% 30.13 in 5.0 mi WNW 12.7 mph 19.6 mph 0.00 in   Haze
4:54 PM 19.0 °F 8.2 °F 9.0 °F 65% 30.16 in 10.0 mi WNW 9.2 mph - N/A   Overcast
5:54 PM 18.0 °F 6.9 °F 7.0 °F 62% 30.19 in 10.0 mi WNW 9.2 mph 19.6 mph N/A   Partly Cloudy
6:54 PM 18.0 °F 5.4 °F 7.0 °F 62% 30.23 in 9.0 mi WNW 11.5 mph 23.0 mph N/A   Overcast
7:54 PM 17.1 °F 5.0 °F 7.0 °F 65% 30.26 in 10.0 mi NW 10.4 mph 17.3 mph N/A   Overcast
8:54 PM 16.0 °F 5.3 °F 6.1 °F 65% 30.29 in 10.0 mi WNW 8.1 mph - N/A   Overcast
9:54 PM 15.1 °F 5.2 °F 6.1 °F 68% 30.31 in 10.0 mi WNW 6.9 mph - N/A   Overcast
10:54 PM 15.1 °F 6.4 °F 6.1 °F 68% 30.33 in 10.0 mi NW 5.8 mph - N/A   Overcast
11:54 PM 14.0 °F 2.9 °F 7.0 °F 74% 30.37 in 10.0 mi NW 8.1 mph - N/A   Overcast